This is the latest recevied weather packets stored in our database for station/object W5GBS-9. If no packets are shown the sender has not sent any weather packets the latest 10 day(s).
| Time | Temp. | Humidity | Pressure | Rain* | Wind** | Luminosity | Snow |
|---|---|---|---|---|---|---|---|
| 1787670717 | 31.11° C | 100% | 1014.8 hPa | 0 mm | - | - | - |
| 1787669996 | 30.56° C | 100% | 1014.5 hPa | 0 mm | - | - | - |
| 1787669276 | 30° C | 100% | 1014.5 hPa | 0 mm | - | - | - |
| 1787668555 | 29.44° C | 100% | 1014.5 hPa | 0 mm | - | - | - |
| 1787667113 | 27.78° C | 100% | 1014.4 hPa | 0 mm | - | - | - |
| 1787666393 | 27.22° C | 100% | 1014.2 hPa | 0 mm | - | - | - |
| 1787665672 | 26.67° C | 100% | 1014 hPa | 0 mm | - | - | - |
| 1787664953 | 26.11° C | 100% | 1014 hPa | 0 mm | - | - | - |
| 1787664230 | 26.11° C | 100% | 1014 hPa | 0 mm | - | - | - |
| 1787663510 | 25° C | 100% | 1013.9 hPa | 0 mm | - | - | - |
| 1787662789 | 24.44° C | 100% | 1013.7 hPa | 0 mm | - | - | - |
| 1787662069 | 24.44° C | 100% | 1013.5 hPa | 0 mm | - | - | - |
| 1787661349 | 23.89° C | 100% | 1013.4 hPa | 0 mm | - | - | - |
| 1787660627 | 23.89° C | 100% | 1013.4 hPa | 0 mm | - | - | - |
| 1787659907 | 24.44° C | 100% | 1013.3 hPa | 0 mm | - | - | - |
| 1787659185 | 24.44° C | 100% | 1013.1 hPa | 0 mm | - | - | - |
| 1787658465 | 24.44° C | 100% | 1013 hPa | 0 mm | - | - | - |
| 1787657744 | 24.44° C | 100% | 1012.9 hPa | 0 mm | - | - | - |
| 1787657023 | 25° C | 100% | 1013 hPa | 0 mm | - | - | - |
| 1787656303 | 25° C | 100% | 1012.8 hPa | 0 mm | - | - | - |
| 1787655582 | 25° C | 100% | 1013 hPa | 0 mm | - | - | - |
| 1787654862 | 25° C | 100% | 1013.1 hPa | 0 mm | - | - | - |
| 1787654142 | 25.56° C | 100% | 1012.9 hPa | 0 mm | - | - | - |
| 1787653420 | 25.56° C | 100% | 1012.8 hPa | 0 mm | - | - | - |
| 1787652699 | 25.56° C | 100% | 1012.8 hPa | 0 mm | - | - | - |
* Rain latest hour (hover to see other rain measurements)
** Current wind speed in m/s (hover to see current wind gust speed)